Theta_e
337 338 339 340 340 340 341 342 344 344 343 343 343 343 342 340 342 342 341 339 337 338 339 339 343 342 342 342 343 343 342 342 342 343 342 342 343 343 342 341 343 343 343
337 338 338 339 341 341 341 342 344 342 342 342 343 343 340 339 342 342 342 343 340 337 341 339 341 341 343 343 342 341 341 341 340 340 341 341 341 342 341 342 342 343 343
336 338 339 339 339 341 342 342 341 342 341 341 341 337 337 339 340 341 339 339 338 336 338 338 340 342 342 341 340 341 340 338 339 339 341 342 342 341 341 341 341 342 343
335 337 339 339 339 339 341 342 342 340 339 338 337 335 338 336 335 336 336 336 338 336 337 337 339 341 340 340 340 342 339 337 337 339 340 341 341 339 339 340 342 342 342
334 337 338 338 338 338 339 341 340 339 339 337 335 334 338 335 334 334 329 327 333 336 336 337 338 339 339 339 339 340 338 338 338 339 339 340 341 343 343 342 342 340 341
334 336 336 337 337 337 337 338 339 339 338 336 335 335 336 335 333 332 329 329 328 336 336 336 336 339 338 338 338 339 338 337 339 339 340 340 341 341 342 341 339 338 338
335 335 336 335 336 336 335 336 337 338 337 336 334 334 337 335 333 330 332 333 334 334 335 336 337 338 336 336 336 337 337 338 339 339 340 340 341 340 340 339 339 339 338
334 333 332 330 334 335 335 335 335 336 336 335 334 333 334 337 334 334 329 329 327 331 333 336 333 328 329 332 332 335 335 336 338 338 339 339 339 340 339 338 339 338 337
332 332 333 333 333 332 333 334 335 335 334 335 334 332 333 333 335 334 335 330 329 330 328 335 331 331 325 328 331 332 333 336 337 336 337 337 337 337 336 336 336 335 334
333 333 334 334 336 336 333 331 331 330 332 334 333 332 332 333 330 332 334 332 333 333 333 334 333 333 331 332 331 331 333 334 336 336 335 336 335 335 334 333 332 331 330
332 334 332 334 334 332 332 333 332 332 333 332 331 332 333 331 329 330 331 333 334 333 332 332 331 332 332 330 330 332 331 332 334 334 334 332 331 331 330 329 329 328 327
330 333 331 332 332 332 333 334 330 331 330 329 329 328 327 328 330 330 329 331 334 333 333 331 332 331 331 331 328 329 329 330 330 329 329 328 328 327 326 325 325 325 324
330 330 331 332 331 331 331 330 329 329 327 326 325 326 326 328 328 328 330 330 332 330 329 330 329 328 326 326 326 327 328 328 328 328 327 326 325 324 322 321 321 321 321
328 327 329 331 329 329 329 328 327 327 325 322 323 325 324 327 328 328 328 328 328 329 330 327 326 324 324 324 324 324 326 325 325 324 323 323 322 321 319 317 318 318 317
328 327 326 328 328 327 327 327 325 324 325 323 323 321 320 324 326 325 325 326 327 328 328 325 321 319 320 320 322 322 323 323 322 321 319 319 319 318 317 316 316 315 314
327 327 325 328 327 325 326 327 325 323 319 323 322 322 323 323 323 324 323 322 321 322 321 318 316 317 317 317 318 318 319 320 320 318 316 315 315 316 315 314 314 313 313
326 326 325 326 327 325 325 326 323 323 322 321 321 320 321 322 322 321 321 320 319 319 317 314 315 316 315 313 314 314 315 315 315 315 314 313 312 312 312 313 313 312 312
326 326 325 324 326 324 324 323 320 323 319 318 318 315 315 317 319 318 317 315 314 313 312 311 313 313 312 312 311 309 310 311 311 311 310 309 309 309 310 310 310 310 310
324 325 326 323 325 324 321 321 319 318 317 315 315 314 312 311 313 316 313 313 313 311 311 311 312 312 310 307 304 303 303 303 305 306 305 304 304 305 306 307 307 308 308
323 324 325 322 323 323 319 319 316 316 314 312 312 311 309 308 306 304 302 302 309 310 309 310 310 309 307 304 299 299 300 302 301 300 300 299 297 297 300 301 303 305 306
320 322 324 322 322 320 317 313 312 314 311 311 310 309 308 306 306 304 299 298 303 307 308 307 306 304 302 301 302 296 296 297 297 296 296 295 293 293 295 296 299 301 302
306 321 322 321 320 319 317 317 314 313 311 310 308 307 307 307 308 304 298 297 300 304 305 305 305 304 303 306 307 304 302 296 294 293 293 292 292 291 291 291 292 294 297
294 297 307 321 318 318 318 315 310 308 308 307 306 304 303 302 303 299 296 296 297 301 303 305 306 304 303 297 303 300 300 303 295 291 291 291 291 291 290 290 290 291 293
289 292 299 309 318 317 315 312 310 310 307 308 307 304 302 299 297 296 295 295 296 298 302 303 303 305 303 298 295 293 294 294 298 293 290 290 290 290 290 290 290 289 289
287 288 294 307 317 315 315 313 312 312 311 307 306 302 301 297 296 295 295 295 295 296 299 300 300 300 300 297 298 293 294 294 295 296 294 291 290 290 289 289 289 289 289
285 286 290 299 315 313 313 312 312 311 307 300 299 298 297 297 296 295 295 295 295 295 296 298 301 301 303 298 295 294 295 297 296 296 295 293 292 289 289 289 289 289 289
Wind_Speed
14 15 21 18 16 18 15 15 14 16 15 13 12 11 11 12 12 12 12 13 15 16 16 17 20 17 17 17 17 18 19 20 21 23 22 22 22 23 25 28 25 23 24
16 18 22 18 15 16 14 14 15 14 15 13 12 11 11 11 12 12 12 12 15 17 17 18 21 19 18 18 19 20 20 22 24 24 25 23 23 23 25 26 25 24 25
17 19 20 18 15 14 12 13 14 14 14 13 12 11 9 9 11 12 12 12 14 16 18 20 22 21 20 20 21 21 22 25 25 26 23 21 21 23 24 26 27 26 25
16 19 18 18 16 16 13 13 13 13 13 13 11 11 10 12 14 13 11 12 11 15 17 20 24 23 23 24 24 23 24 26 26 24 20 20 22 23 25 27 26 25 25
16 17 16 18 15 14 15 11 11 12 12 12 12 12 13 14 15 16 15 10 11 14 16 22 26 27 27 27 26 24 26 27 26 19 20 20 20 23 25 26 26 25 26
17 16 16 17 15 14 14 13 12 11 11 11 11 11 13 15 19 19 15 15 17 17 18 22 28 30 29 28 27 27 27 26 21 19 18 20 19 22 24 25 25 24 24
17 15 14 16 14 14 14 14 14 11 10 10 10 13 14 17 18 16 15 15 18 18 21 27 30 29 29 28 26 27 28 24 19 19 19 18 21 24 24 24 24 23 23
16 14 12 14 14 15 15 12 12 11 11 10 9 12 14 17 19 18 18 15 18 20 20 28 33 27 24 24 23 25 26 23 20 18 19 20 24 24 25 25 25 24 25
14 13 12 12 12 13 12 13 12 11 10 9 11 12 11 12 15 18 17 16 20 23 23 49 34 33 30 23 26 24 24 24 21 21 21 24 25 26 28 30 29 29 28
13 11 11 12 13 12 9 12 11 9 10 13 12 10 14 14 6 11 16 21 24 29 29 41 37 33 29 25 26 24 27 27 22 22 28 30 29 28 28 27 26 26 26
14 13 13 13 13 12 8 7 8 9 11 10 7 9 13 12 10 4 27 27 20 36 35 34 33 32 33 30 25 23 23 24 22 23 30 30 29 27 26 26 25 24 23
15 14 15 14 14 11 12 13 13 13 10 8 11 14 12 17 18 28 25 25 36 32 37 34 34 33 34 33 31 29 28 26 25 27 28 30 27 26 26 25 23 22 22
16 14 15 16 14 13 14 13 11 13 9 8 12 18 18 21 18 20 22 31 41 44 40 34 33 31 31 29 24 21 25 26 28 29 28 28 26 24 22 21 20 20 19
19 17 15 17 16 15 17 14 11 14 9 10 15 19 23 23 25 28 26 24 21 37 37 35 35 35 31 26 21 23 24 26 25 28 27 26 24 22 20 20 20 20 20
22 21 20 20 18 18 19 18 15 13 11 16 17 17 16 21 22 25 26 26 29 30 33 35 36 35 32 27 21 20 22 23 22 23 26 24 23 20 18 19 19 18 18
23 23 22 22 20 20 22 19 17 15 13 17 17 17 16 21 25 27 29 29 30 33 34 36 36 34 30 25 24 21 22 21 21 22 22 22 20 19 17 17 17 17 16
25 22 26 23 21 21 23 22 16 16 16 16 14 14 16 20 24 27 27 28 30 31 34 33 33 31 26 22 23 21 21 20 20 20 19 18 18 18 16 16 16 15 15
21 25 28 27 24 21 26 23 14 18 14 14 14 14 18 22 24 26 28 27 30 31 32 30 31 27 21 20 20 19 19 19 20 19 19 17 15 14 15 15 15 14 15
21 23 26 29 27 24 25 25 17 17 15 14 15 16 17 21 24 25 26 26 28 30 29 26 21 21 21 20 20 19 16 17 17 16 17 15 13 13 13 15 16 15 13
18 22 25 27 27 25 23 25 18 17 15 14 15 16 20 20 23 27 27 27 29 30 27 20 21 18 21 23 21 20 17 17 16 14 13 12 11 11 11 12 12 13 13
18 22 25 28 33 27 27 25 21 20 17 16 15 18 19 21 23 24 26 26 25 28 25 23 23 25 21 26 23 18 16 13 12 9 8 8 10 10 10 9 10 10 11
13 18 23 28 34 34 28 26 20 23 18 18 17 18 18 21 23 23 26 26 25 23 20 22 25 22 22 19 13 13 4 4 5 5 6 6 7 7 8 7 7 9 9
19 17 10 27 35 34 26 25 25 24 20 18 18 19 20 20 23 22 24 24 24 23 26 24 24 24 20 10 19 5 4 4 11 3 4 5 6 6 7 7 7 8 8
26 22 16 10 36 35 34 29 33 29 24 24 24 20 23 22 23 23 23 23 25 23 23 24 24 19 23 17 13 4 5 9 3 4 4 5 6 7 7 6 6 7 7
26 27 19 14 34 32 40 36 34 27 25 24 25 24 29 26 22 23 22 21 24 24 25 24 25 24 24 23 15 9 6 6 7 5 4 8 7 8 7 7 7 6 6
30 30 28 19 22 35 36 36 34 33 27 28 26 27 26 25 26 24 23 21 21 21 21 23 27 25 29 23 18 11 9 5 7 5 4 8 10 8 8 7 6 5 6
Wind_Direction
194 174 172 174 181 180 189 192 195 192 198 199 200 199 206 205 199 203 205 203 201 193 187 179 155 146 142 139 138 134 131 125 125 127 127 127 126 125 126 121 118 118 116
170 170 171 177 180 183 187 194 192 195 198 198 199 200 211 210 207 205 209 210 205 198 190 183 159 150 147 145 139 136 132 130 125 124 125 128 128 127 128 123 123 120 115
162 166 171 178 178 181 188 197 196 195 198 197 198 201 205 207 204 205 207 209 215 207 197 185 160 157 148 145 138 133 132 130 128 120 116 121 124 129 131 131 125 119 115
164 167 174 177 179 182 190 188 196 197 203 198 193 197 202 210 211 199 200 198 212 216 205 185 165 158 148 144 139 133 135 133 129 120 123 122 121 127 128 123 120 119 117
165 168 176 175 179 184 190 197 198 203 205 202 200 207 208 218 214 189 191 221 212 216 212 187 167 154 149 145 141 139 139 136 125 127 125 127 123 120 118 118 117 119 117
168 171 183 173 180 188 193 207 209 210 207 208 204 202 208 213 206 219 232 221 221 213 203 184 161 149 147 143 141 139 139 131 123 124 124 125 125 121 118 118 119 117 114
171 174 177 176 184 191 201 202 212 213 217 216 214 213 215 215 215 213 208 206 204 206 198 182 150 139 137 137 139 141 138 126 124 123 124 124 124 119 116 114 115 115 116
171 174 179 190 185 197 201 212 218 218 226 228 223 217 217 220 225 227 222 225 227 214 210 178 151 143 135 137 139 143 138 129 122 125 121 121 122 117 114 113 109 111 108
173 178 176 180 183 188 199 214 217 216 222 215 225 219 210 216 222 223 226 217 205 216 217 150 153 151 143 143 149 146 137 129 124 120 118 120 116 110 105 101 100 98 98
175 179 181 181 182 184 190 216 233 239 210 205 218 201 201 188 174 227 212 200 180 129 132 135 135 136 146 144 145 157 140 129 115 115 118 112 105 101 98 96 95 93 92
181 173 173 168 172 180 197 182 165 180 181 187 158 161 169 146 94 252 219 195 165 143 142 134 135 143 143 143 147 139 127 105 110 110 109 107 100 97 95 94 92 93 93
181 175 172 170 169 164 154 142 145 155 143 148 141 135 130 135 118 92 101 170 166 147 132 134 143 149 144 140 134 128 121 110 104 105 102 101 99 96 94 94 94 95 93
187 179 178 173 174 169 160 155 151 163 153 143 146 154 139 141 147 139 97 98 135 121 128 141 137 136 130 133 126 115 113 105 102 101 105 103 99 95 93 93 96 96 93
192 190 178 174 173 171 176 163 159 167 156 154 156 162 162 136 134 137 129 127 120 133 139 138 136 133 132 129 121 116 115 108 104 101 104 101 98 97 99 101 99 98 96
200 193 184 177 177 170 182 172 164 159 151 156 154 149 158 160 152 144 142 143 143 142 139 138 135 135 133 129 123 124 120 118 116 109 104 106 100 99 99 100 102 98 98
203 196 190 181 180 173 178 181 168 163 152 163 159 155 159 158 155 156 145 140 136 139 140 139 140 138 130 125 125 123 119 121 118 113 106 107 105 99 99 100 99 99 98
206 192 196 182 181 174 178 175 171 170 170 165 168 164 164 163 158 154 149 144 139 139 144 143 137 136 127 119 116 116 115 116 116 115 113 113 113 107 102 101 101 101 99
206 197 192 185 182 177 180 175 167 174 161 158 156 155 158 162 160 151 145 143 144 146 145 142 140 127 122 120 116 110 110 111 113 113 115 114 113 108 100 99 101 100 99
213 205 191 188 181 178 177 178 166 164 161 160 156 155 153 155 157 156 152 150 150 148 148 138 130 136 131 120 114 110 106 109 108 112 111 112 115 114 112 111 103 96 97
223 212 196 185 178 176 167 172 162 165 164 162 159 157 155 158 156 152 152 154 156 156 153 141 139 135 130 124 112 105 106 110 112 110 115 119 120 114 115 114 105 103 101
229 213 197 186 180 171 168 161 160 169 168 164 164 162 158 159 163 160 156 158 163 163 153 149 140 135 130 132 114 97 88 98 103 108 122 124 122 119 122 121 119 116 106
343 227 202 191 180 184 178 176 168 167 172 168 166 168 172 171 173 173 166 163 161 159 154 153 148 138 137 147 144 119 132 96 91 107 123 130 129 132 132 133 131 125 125
349 338 315 196 185 184 182 167 156 156 155 167 175 171 173 175 175 174 171 168 164 164 162 162 160 156 155 159 162 137 157 170 144 135 132 139 151 145 140 135 134 133 134
342 335 315 297 188 186 179 174 171 173 168 179 176 175 174 175 173 175 175 171 171 171 167 170 171 169 164 156 158 116 116 129 149 147 184 179 167 167 163 154 147 151 144
349 344 344 308 190 184 188 184 176 177 177 170 172 172 180 177 178 177 174 174 176 178 178 176 176 174 172 170 170 143 126 112 119 142 154 180 184 181 177 170 168 162 158
355 358 3 7 189 184 189 189 179 174 169 161 163 164 169 175 177 179 180 180 177 177 177 182 182 185 183 181 178 169 155 150 159 146 112 162 177 181 183 180 172 172 170